Theta_e
292 295 296 296 298 302 304 314 317 316 313 310 308 307 307 305 305 305 303 301 298 298
291 295 295 297 298 298 305 314 313 313 310 308 306 305 304 303 302 302 301 301 299 298
290 295 298 297 298 299 307 313 311 310 309 307 306 305 304 302 302 301 301 300 298 298
288 293 297 298 298 299 308 311 311 309 306 299 298 302 302 300 299 300 299 298 298 298
288 291 295 299 297 300 309 309 308 306 301 301 301 301 300 297 297 296 295 295 297 298
287 290 293 297 297 306 306 304 305 303 301 300 299 299 298 297 296 295 294 294 294 294
288 290 294 298 301 304 303 302 300 301 300 299 299 298 297 295 294 294 293 294 295 294
288 289 290 290 294 297 298 298 299 297 297 295 294 295 293 293 293 293 292 293 294 294
285 287 288 289 289 290 291 291 290 291 291 289 289 294 294 293 292 292 292 292 293 295
284 285 287 287 288 286 288 289 288 289 289 289 289 293 293 291 290 290 290 290 290 289
280 281 283 285 285 285 286 286 287 287 288 289 291 293 292 290 290 290 289 289 289 289
277 278 280 280 281 284 285 284 284 285 286 287 288 291 291 289 289 288 287 287 288 288
276 277 277 279 280 281 282 282 283 283 284 285 287 291 291 289 287 286 286 286 286 287
275 277 278 279 280 280 281 282 282 282 282 283 286 289 291 290 287 286 286 286 285 286
Wind_Speed
23 16 17 19 14 11 15 14 12 18 14 17 16 16 15 12 12 13 11 15 12 9
21 23 18 20 18 15 18 14 13 18 18 17 17 17 16 11 13 13 13 14 14 14
20 21 19 19 20 19 19 18 16 17 17 17 17 18 17 12 13 15 12 11 15 13
19 21 19 19 20 19 21 14 20 17 17 15 15 16 15 14 15 17 14 16 18 18
20 20 20 19 20 19 16 14 15 18 16 17 17 17 17 16 14 15 14 14 16 17
18 19 20 20 17 20 16 14 14 16 19 18 18 18 16 17 16 15 15 12 12 13
17 20 20 14 14 17 16 16 15 14 16 15 16 17 18 18 19 17 15 17 15 14
6 8 9 9 10 15 15 14 15 14 11 14 7 7 13 14 16 14 13 13 13 14
11 12 12 13 13 17 11 14 14 13 15 12 6 12 11 15 13 13 15 15 13 12
10 14 18 18 16 15 13 16 17 14 14 11 9 17 14 14 11 10 9 8 8 7
22 23 20 18 17 13 17 18 17 16 15 11 8 13 14 12 10 9 9 9 7 7
21 20 17 20 17 13 20 16 17 14 17 16 11 14 12 11 8 9 8 6 7 7
18 16 19 15 17 15 18 16 14 16 18 14 15 16 16 11 6 9 7 6 4 9
20 17 18 17 16 14 15 14 16 16 16 17 15 13 19 17 8 6 6 6 5 4
Wind_Direction
261 243 239 233 235 238 241 223 198 182 179 163 163 163 168 170 174 171 165 158 155 139
250 248 235 227 226 227 249 222 186 175 169 160 163 161 164 167 171 168 167 161 164 142
246 247 237 229 225 220 237 210 168 182 176 161 163 162 165 166 168 168 170 163 168 158
241 244 248 225 225 221 228 181 177 176 164 155 157 159 155 158 161 168 166 165 168 168
237 232 242 230 223 229 186 167 172 160 150 158 156 158 151 150 160 155 159 160 161 168
226 226 231 238 219 200 156 145 166 156 156 156 155 150 148 149 155 154 150 155 155 165
216 217 222 218 197 169 145 145 143 153 142 143 154 155 155 163 164 166 167 157 173 174
123 128 133 109 157 130 140 141 145 129 141 123 116 176 157 157 151 153 152 159 171 182
72 96 110 98 91 83 119 122 108 133 113 95 110 130 158 151 141 147 161 168 169 189
75 94 85 75 86 73 87 93 94 83 81 97 100 114 122 124 122 122 125 143 162 162
41 52 52 67 65 79 84 79 83 83 82 80 86 110 130 120 118 121 128 131 141 155
25 46 54 57 51 53 79 68 74 71 72 72 69 83 87 96 100 107 101 118 134 143
26 43 54 55 53 55 61 69 68 66 58 54 63 67 69 71 86 97 102 90 96 112
23 28 41 48 52 50 67 69 73 74 67 57 47 59 69 64 68 74 84 84 78 74